Time,TemperatureF,DewpointF,PressureIn,WindDirection,WindDirectionDegrees,WindSpeedMPH,WindSpeedGustMPH,Humidity,HourlyPrecipIn,Conditions,Clouds,dailyrainin,SoftwareType,DateUTC
2013-12-23 00:04:00,11.7,9.0,30.45,NE,55,0.0,0.0,94,0.00,,,0.00,TxWx,2013-12-23 06:04:00,
2013-12-23 00:09:00,11.6,9.0,30.44,ESE,122,0.0,0.0,94,0.00,,,0.00,TxWx,2013-12-23 06:09:00,
2013-12-23 00:14:00,11.5,9.0,30.44,ESE,122,0.0,0.0,94,0.00,,,0.00,TxWx,2013-12-23 06:14:00,
2013-12-23 00:19:00,11.4,8.0,30.44,South,190,0.0,0.0,94,0.00,,,0.00,TxWx,2013-12-23 06:19:00,
2013-12-23 00:24:00,11.4,8.0,30.44,South,190,0.0,0.0,94,0.00,,,0.00,TxWx,2013-12-23 06:24:00,
2013-12-23 00:29:00,11.2,8.0,30.44,SSE,167,0.0,0.0,94,0.00,,,0.00,TxWx,2013-12-23 06:29:00,
2013-12-23 00:35:00,11.1,8.0,30.44,SW,235,0.0,0.0,94,0.00,,,0.00,TxWx,2013-12-23 06:35:00,
2013-12-23 00:40:00,11.0,8.0,30.44,South,190,0.0,0.0,94,0.00,,,0.00,TxWx,2013-12-23 06:40:00,
2013-12-23 00:45:00,10.9,8.0,30.44,South,190,0.0,0.0,94,0.00,,,0.00,TxWx,2013-12-23 06:45:00,
2013-12-23 00:50:00,10.8,8.0,30.44,South,190,0.0,0.0,94,0.00,,,0.00,TxWx,2013-12-23 06:50:00,
2013-12-23 00:55:00,10.8,8.0,30.45,SSW,212,0.0,0.0,94,0.00,,,0.00,TxWx,2013-12-23 06:55:00,
2013-12-23 01:00:00,10.8,8.0,30.45,SE,145,0.0,0.0,94,0.00,,,0.00,TxWx,2013-12-23 07:00:00,
2013-12-23 01:05:00,10.7,8.0,30.45,SSE,167,0.0,0.0,94,0.00,,,0.00,TxWx,2013-12-23 07:05:00,
2013-12-23 01:10:00,10.6,8.0,30.44,SSE,167,0.0,0.0,94,0.00,,,0.00,TxWx,2013-12-23 07:10:00,
2013-12-23 01:15:00,10.5,8.0,30.44,SSE,167,0.0,0.0,94,0.00,,,0.00,TxWx,2013-12-23 07:15:00,
2013-12-23 01:20:00,10.4,8.0,30.44,SSE,167,0.0,0.0,94,0.00,,,0.00,TxWx,2013-12-23 07:20:00,
2013-12-23 01:25:00,10.3,7.0,30.43,SSE,167,0.0,0.0,93,0.00,,,0.00,TxWx,2013-12-23 07:25:00,
2013-12-23 01:30:00,10.0,7.0,30.43,West,280,0.0,0.0,93,0.00,,,0.00,TxWx,2013-12-23 07:30:00,
2013-12-23 01:35:00,9.9,7.0,30.44,WNW,302,0.0,0.0,93,0.00,,,0.00,TxWx,2013-12-23 07:35:00,
2013-12-23 01:40:00,9.7,7.0,30.44,ENE,77,0.0,0.0,93,0.00,,,0.00,TxWx,2013-12-23 07:40:00,
2013-12-23 01:45:00,9.5,7.0,30.45,WNW,302,0.0,0.0,93,0.00,,,0.00,TxWx,2013-12-23 07:45:00,
2013-12-23 01:50:00,9.4,6.0,30.46,SE,145,0.0,0.0,93,0.00,,,0.00,TxWx,2013-12-23 07:50:00,
2013-12-23 01:55:00,9.1,6.0,30.46,SSE,167,0.0,0.0,93,0.00,,,0.00,TxWx,2013-12-23 07:55:00,
2013-12-23 02:00:00,9.0,6.0,30.47,WSW,257,0.0,0.0,93,0.00,,,0.00,TxWx,2013-12-23 08:00:00,
2013-12-23 02:05:00,8.8,6.0,30.48,SW,235,0.0,0.0,93,0.00,,,0.00,TxWx,2013-12-23 08:05:00,
2013-12-23 02:10:00,8.7,6.0,30.49,NE,55,0.0,0.0,93,0.00,,,0.00,TxWx,2013-12-23 08:10:00,
2013-12-23 02:15:00,8.7,6.0,30.48,WSW,257,0.0,0.0,93,0.00,,,0.00,TxWx,2013-12-23 08:15:00,
2013-12-23 02:20:00,8.6,7.0,30.48,WNW,302,0.0,0.6,94,0.00,,,0.00,TxWx,2013-12-23 08:20:00,
2013-12-23 02:25:00,8.6,7.0,30.48,West,280,0.6,0.6,94,0.00,,,0.00,TxWx,2013-12-23 08:25:00,
2013-12-23 02:30:00,8.7,7.0,30.48,East,100,0.0,0.6,94,0.00,,,0.00,TxWx,2013-12-23 08:30:00,
2013-12-23 02:35:00,8.9,7.0,30.48,WNW,302,0.6,2.5,94,0.00,,,0.00,TxWx,2013-12-23 08:35:00,
2013-12-23 02:40:00,9.0,7.0,30.48,NNE,32,0.0,0.6,94,0.00,,,0.00,TxWx,2013-12-23 08:40:00,
2013-12-23 02:45:00,9.2,7.0,30.49,SW,235,1.9,3.1,94,0.00,,,0.00,TxWx,2013-12-23 08:45:00,
2013-12-23 02:50:00,9.3,7.0,30.49,NNE,32,0.0,1.9,94,0.00,,,0.00,TxWx,2013-12-23 08:50:00,
2013-12-23 02:55:00,9.5,8.0,30.49,North,10,0.0,2.5,94,0.00,,,0.00,TxWx,2013-12-23 08:55:00,
2013-12-23 03:00:00,9.7,8.0,30.49,NNW,347,1.2,3.1,94,0.00,,,0.00,TxWx,2013-12-23 09:00:00,
2013-12-23 03:06:00,9.9,7.0,30.49,NE,55,0.0,1.2,93,0.00,,,0.00,TxWx,2013-12-23 09:06:00,
2013-12-23 03:11:00,9.9,7.0,30.49,South,190,0.0,0.6,93,0.00,,,0.00,TxWx,2013-12-23 09:11:00,
2013-12-23 03:16:00,10.0,7.0,30.49,NNW,347,0.0,2.5,92,0.00,,,0.00,TxWx,2013-12-23 09:16:00,
2013-12-23 03:21:00,10.0,7.0,30.49,NNW,347,0.0,1.2,92,0.00,,,0.00,TxWx,2013-12-23 09:21:00,
2013-12-23 03:26:00,10.0,7.0,30.49,NE,55,0.0,0.6,91,0.00,,,0.00,TxWx,2013-12-23 09:26:00,
2013-12-23 03:31:00,10.1,7.0,30.50,North,10,0.0,0.6,91,0.00,,,0.00,TxWx,2013-12-23 09:31:00,
2013-12-23 03:36:00,10.1,7.0,30.50,WNW,302,0.0,0.0,91,0.00,,,0.00,TxWx,2013-12-23 09:36:00,
2013-12-23 03:41:00,10.0,7.0,30.50,WNW,302,0.0,0.6,91,0.00,,,0.00,TxWx,2013-12-23 09:41:00,
2013-12-23 03:46:00,10.0,7.0,30.50,NNE,32,0.0,0.6,90,0.00,,,0.00,TxWx,2013-12-23 09:46:00,
2013-12-23 03:51:00,9.9,7.0,30.50,North,10,0.0,0.0,90,0.00,,,0.00,TxWx,2013-12-23 09:51:00,
2013-12-23 03:56:00,9.8,7.0,30.50,NNW,347,0.6,2.5,90,0.00,,,0.00,TxWx,2013-12-23 09:56:00,
2013-12-23 04:01:00,9.8,7.0,30.51,NE,55,0.0,0.6,91,0.00,,,0.00,TxWx,2013-12-23 10:01:00,
2013-12-23 04:06:00,9.7,7.0,30.50,ENE,77,0.0,1.9,90,0.00,,,0.00,TxWx,2013-12-23 10:06:00,
2013-12-23 04:11:00,9.7,7.0,30.51,North,10,0.0,1.9,90,0.00,,,0.00,TxWx,2013-12-23 10:11:00,
2013-12-23 04:16:00,9.7,7.0,30.51,East,100,0.0,0.6,90,0.00,,,0.00,TxWx,2013-12-23 10:16:00,
2013-12-23 04:21:00,9.6,7.0,30.50,ENE,77,0.0,0.6,90,0.00,,,0.00,TxWx,2013-12-23 10:21:00,
2013-12-23 04:27:00,9.4,6.0,30.50,NE,55,0.0,0.6,90,0.00,,,0.00,TxWx,2013-12-23 10:27:00,
2013-12-23 04:32:00,9.4,6.0,30.50,ENE,77,1.9,2.5,90,0.00,,,0.00,TxWx,2013-12-23 10:32:00,
2013-12-23 04:37:00,9.1,5.0,30.50,WNW,302,0.6,1.9,89,0.00,,,0.00,TxWx,2013-12-23 10:37:00,
2013-12-23 04:42:00,9.1,5.0,30.50,NNW,347,0.6,0.6,89,0.00,,,0.00,TxWx,2013-12-23 10:42:00,
2013-12-23 04:47:00,9.1,5.0,30.51,NNE,32,0.0,0.0,89,0.00,,,0.00,TxWx,2013-12-23 10:47:00,
2013-12-23 04:52:00,8.9,5.0,30.51,NNE,32,1.2,2.5,89,0.00,,,0.00,TxWx,2013-12-23 10:52:00,
2013-12-23 04:57:00,8.9,5.0,30.51,NNW,347,0.0,0.0,88,0.00,,,0.00,TxWx,2013-12-23 10:57:00,
2013-12-23 05:02:00,8.8,5.0,30.51,WNW,302,0.0,1.2,88,0.00,,,0.00,TxWx,2013-12-23 11:02:00,
2013-12-23 05:07:00,8.6,5.0,30.52,NNW,347,0.0,1.9,88,0.00,,,0.00,TxWx,2013-12-23 11:07:00,
2013-12-23 05:12:00,8.6,5.0,30.53,North,10,0.0,0.6,88,0.00,,,0.00,TxWx,2013-12-23 11:12:00,
2013-12-23 05:17:00,8.6,5.0,30.53,North,10,0.6,0.6,88,0.00,,,0.00,TxWx,2013-12-23 11:17:00,
2013-12-23 05:22:00,8.8,5.0,30.53,NE,55,0.0,0.6,89,0.00,,,0.00,TxWx,2013-12-23 11:22:00,
2013-12-23 05:27:00,9.0,5.0,30.53,NE,55,0.6,1.2,89,0.00,,,0.00,TxWx,2013-12-23 11:27:00,
2013-12-23 05:32:00,9.1,5.0,30.54,WNW,302,0.0,0.6,89,0.00,,,0.00,TxWx,2013-12-23 11:32:00,
2013-12-23 05:37:00,9.1,5.0,30.54,NNW,347,0.0,4.3,89,0.00,,,0.00,TxWx,2013-12-23 11:37:00,
2013-12-23 05:42:00,9.2,5.0,30.54,NE,55,3.7,3.7,88,0.00,,,0.00,TxWx,2013-12-23 11:42:00,
2013-12-23 05:47:00,9.1,5.0,30.55,WNW,302,0.6,2.5,87,0.00,,,0.00,TxWx,2013-12-23 11:47:00,
2013-12-23 05:52:00,9.2,5.0,30.54,WNW,302,1.2,2.5,87,0.00,,,0.00,TxWx,2013-12-23 11:52:00,
2013-12-23 05:57:00,9.1,5.0,30.54,NE,55,2.5,3.1,87,0.00,,,0.00,TxWx,2013-12-23 11:57:00,
2013-12-23 06:02:00,9.0,5.0,30.55,NE,55,1.2,1.9,86,0.00,,,0.00,TxWx,2013-12-23 12:02:00,
2013-12-23 06:07:00,9.0,5.0,30.55,North,10,1.9,1.9,87,0.00,,,0.00,TxWx,2013-12-23 12:07:00,
2013-12-23 06:12:00,9.1,5.0,30.54,ENE,77,1.2,4.3,87,0.00,,,0.00,TxWx,2013-12-23 12:12:00,
2013-12-23 06:17:00,9.1,5.0,30.53,NW,325,0.6,3.1,87,0.00,,,0.00,TxWx,2013-12-23 12:17:00,
2013-12-23 06:22:00,9.2,5.0,30.54,WNW,302,0.6,1.2,88,0.00,,,0.00,TxWx,2013-12-23 12:22:00,
2013-12-23 06:27:00,9.0,5.0,30.54,NW,325,1.9,4.3,87,0.00,,,0.00,TxWx,2013-12-23 12:27:00,
2013-12-23 06:32:00,8.9,5.0,30.54,NE,55,0.0,1.2,86,0.00,,,0.00,TxWx,2013-12-23 12:32:00,
2013-12-23 06:37:00,8.7,5.0,30.55,North,10,0.6,3.7,86,0.00,,,0.00,TxWx,2013-12-23 12:37:00,
2013-12-23 06:42:00,8.5,4.0,30.55,NE,55,3.1,5.0,86,0.00,,,0.00,TxWx,2013-12-23 12:42:00,
2013-12-23 06:47:00,8.4,4.0,30.56,NW,325,2.5,3.7,86,0.00,,,0.00,TxWx,2013-12-23 12:47:00,
2013-12-23 06:52:00,8.3,4.0,30.56,NE,55,0.0,1.9,86,0.00,,,0.00,TxWx,2013-12-23 12:52:00,
2013-12-23 06:57:00,8.2,3.0,30.56,North,10,0.6,4.3,85,0.00,,,0.00,TxWx,2013-12-23 12:57:00,
2013-12-23 07:03:00,8.2,3.0,30.56,NE,55,0.6,1.9,85,0.00,,,0.00,TxWx,2013-12-23 13:03:00,
2013-12-23 07:08:00,8.3,4.0,30.56,East,100,0.6,1.9,86,0.00,,,0.00,TxWx,2013-12-23 13:08:00,
2013-12-23 07:13:00,8.3,4.0,30.56,NNW,347,0.6,1.9,86,0.00,,,0.00,TxWx,2013-12-23 13:13:00,
2013-12-23 07:18:00,8.2,4.0,30.57,NNW,347,0.0,1.9,86,0.00,,,0.00,TxWx,2013-12-23 13:18:00,
2013-12-23 07:23:00,8.0,3.0,30.57,NNW,347,0.0,1.2,85,0.00,,,0.00,TxWx,2013-12-23 13:23:00,
2013-12-23 07:28:00,7.9,3.0,30.58,SSW,212,0.0,1.9,85,0.00,,,0.00,TxWx,2013-12-23 13:28:00,
2013-12-23 07:33:00,7.8,4.0,30.57,East,100,0.6,2.5,86,0.00,,,0.00,TxWx,2013-12-23 13:33:00,
2013-12-23 07:38:00,7.7,4.0,30.58,WNW,302,1.9,2.5,86,0.00,,,0.00,TxWx,2013-12-23 13:38:00,
2013-12-23 07:43:00,7.7,4.0,30.58,East,100,0.0,1.2,86,0.00,,,0.00,TxWx,2013-12-23 13:43:00,
2013-12-23 07:48:00,7.5,4.0,30.58,NNW,347,1.9,1.9,86,0.00,,,0.00,TxWx,2013-12-23 13:48:00,
2013-12-23 07:53:00,7.3,2.0,30.58,NNW,347,0.6,1.2,85,0.00,,,0.00,TxWx,2013-12-23 13:53:00,
2013-12-23 07:58:00,7.4,3.0,30.58,NNW,347,0.0,0.0,86,0.00,,,0.00,TxWx,2013-12-23 13:58:00,
2013-12-23 08:03:00,7.4,3.0,30.59,WSW,257,0.0,0.0,86,0.00,,,0.00,TxWx,2013-12-23 14:03:00,
2013-12-23 08:08:00,7.4,3.0,30.59,NNE,32,0.0,1.9,86,0.00,,,0.00,TxWx,2013-12-23 14:08:00,
2013-12-23 08:13:00,7.5,3.0,30.59,WNW,302,0.0,0.6,86,0.00,,,0.00,TxWx,2013-12-23 14:13:00,
2013-12-23 08:18:00,7.6,4.0,30.60,NNW,347,0.0,0.6,86,0.00,,,0.00,TxWx,2013-12-23 14:18:00,
2013-12-23 08:23:00,7.7,4.0,30.60,NW,325,1.9,3.1,86,0.00,,,0.00,TxWx,2013-12-23 14:23:00,
2013-12-23 08:28:00,7.7,4.0,30.60,NNE,32,1.9,3.1,86,0.00,,,0.00,TxWx,2013-12-23 14:28:00,
2013-12-23 08:33:00,7.9,4.0,30.60,WNW,302,1.9,1.9,86,0.00,,,0.00,TxWx,2013-12-23 14:33:00,
2013-12-23 08:38:00,8.0,4.0,30.61,West,280,4.3,4.3,86,0.00,,,0.00,TxWx,2013-12-23 14:38:00,
2013-12-23 08:43:00,8.1,4.0,30.62,WNW,302,3.1,4.3,86,0.00,,,0.00,TxWx,2013-12-23 14:43:00,
2013-12-23 08:48:00,8.3,3.0,30.63,WNW,302,0.6,2.5,85,0.00,,,0.00,TxWx,2013-12-23 14:48:00,
2013-12-23 08:53:00,8.3,3.0,30.64,NNE,32,2.5,2.5,84,0.00,,,0.00,TxWx,2013-12-23 14:53:00,
2013-12-23 08:58:00,8.3,3.0,30.65,WSW,257,0.6,2.5,84,0.00,,,0.00,TxWx,2013-12-23 14:58:00,
2013-12-23 09:03:00,8.3,3.0,30.66,NNE,32,3.7,4.3,83,0.00,,,0.00,TxWx,2013-12-23 15:03:00,
2013-12-23 09:08:00,8.3,3.0,30.66,North,10,2.5,3.1,83,0.00,,,0.00,TxWx,2013-12-23 15:08:00,
2013-12-23 09:14:00,8.3,3.0,30.66,NNE,32,1.9,2.5,82,0.00,,,0.00,TxWx,2013-12-23 15:14:00,
2013-12-23 09:19:00,8.5,4.0,30.66,WNW,302,0.6,2.5,83,0.00,,,0.00,TxWx,2013-12-23 15:19:00,
2013-12-23 09:24:00,8.9,4.0,30.67,NNW,347,3.7,5.0,83,0.00,,,0.00,TxWx,2013-12-23 15:24:00,
2013-12-23 09:29:00,9.2,4.0,30.67,NE,55,1.9,3.7,83,0.00,,,0.00,TxWx,2013-12-23 15:29:00,
2013-12-23 09:34:00,9.4,4.0,30.67,NNE,32,0.6,3.1,83,0.00,,,0.00,TxWx,2013-12-23 15:34:00,
2013-12-23 09:39:00,9.4,4.0,30.67,SW,235,1.2,4.3,82,0.00,,,0.00,TxWx,2013-12-23 15:39:00,
2013-12-23 09:44:00,9.4,3.0,30.68,NNW,347,1.2,3.7,82,0.00,,,0.00,TxWx,2013-12-23 15:44:00,
2013-12-23 09:49:00,9.6,5.0,30.67,NNW,347,1.9,2.5,82,0.00,,,0.00,TxWx,2013-12-23 15:49:00,
2013-12-23 09:54:00,9.9,5.0,30.68,NE,55,1.2,1.2,82,0.00,,,0.00,TxWx,2013-12-23 15:54:00,
2013-12-23 09:59:00,10.2,5.0,30.69,WNW,302,1.9,1.9,83,0.00,,,0.00,TxWx,2013-12-23 15:59:00,
2013-12-23 10:04:00,10.2,5.0,30.69,NNW,347,1.9,3.1,82,0.00,,,0.00,TxWx,2013-12-23 16:04:00,
2013-12-23 10:09:00,10.5,5.0,30.69,NE,55,0.6,2.5,82,0.00,,,0.00,TxWx,2013-12-23 16:09:00,
2013-12-23 10:14:00,10.8,6.0,30.69,WSW,257,0.6,2.5,83,0.00,,,0.00,TxWx,2013-12-23 16:14:00,
2013-12-23 10:19:00,10.8,6.0,30.69,NW,325,1.2,3.7,82,0.00,,,0.00,TxWx,2013-12-23 16:19:00,
2013-12-23 10:24:00,10.7,5.0,30.69,WNW,302,1.2,1.9,82,0.00,,,0.00,TxWx,2013-12-23 16:24:00,
2013-12-23 10:29:00,10.5,6.0,30.69,WSW,257,0.6,1.9,82,0.00,,,0.00,TxWx,2013-12-23 16:29:00,
2013-12-23 10:34:00,10.5,4.0,30.69,SW,235,1.9,3.1,81,0.00,,,0.00,TxWx,2013-12-23 16:34:00,
2013-12-23 10:39:00,10.3,4.0,30.69,NW,325,1.9,3.7,81,0.00,,,0.00,TxWx,2013-12-23 16:39:00,
2013-12-23 10:44:00,10.5,4.0,30.69,WSW,257,1.2,1.9,81,0.00,,,0.00,TxWx,2013-12-23 16:44:00,
2013-12-23 10:49:00,10.7,6.0,30.68,North,10,0.0,1.2,82,0.00,,,0.00,TxWx,2013-12-23 16:49:00,
2013-12-23 10:54:00,10.9,6.0,30.68,WSW,257,0.6,3.7,83,0.00,,,0.00,TxWx,2013-12-23 16:54:00,
2013-12-23 10:59:00,10.7,6.0,30.68,North,10,1.9,3.7,82,0.00,,,0.00,TxWx,2013-12-23 16:59:00,
2013-12-23 11:05:00,10.3,4.0,30.68,NW,325,3.1,3.7,82,0.00,,,0.00,TxWx,2013-12-23 17:05:00,
2013-12-23 11:10:00,10.7,6.0,30.69,North,10,0.0,1.2,84,0.00,,,0.00,TxWx,2013-12-23 17:10:00,
2013-12-23 11:15:00,10.9,6.0,30.69,NW,325,1.2,3.7,84,0.00,,,0.00,TxWx,2013-12-23 17:15:00,
2013-12-23 11:20:00,11.1,6.0,30.68,NW,325,1.9,3.7,83,0.00,,,0.00,TxWx,2013-12-23 17:20:00,
2013-12-23 11:25:00,11.0,6.0,30.68,NW,325,3.7,3.7,83,0.00,,,0.00,TxWx,2013-12-23 17:25:00,
2013-12-23 11:30:00,11.0,6.0,30.67,NNW,347,3.1,4.3,83,0.00,,,0.00,TxWx,2013-12-23 17:30:00,
2013-12-23 11:35:00,11.3,6.0,30.66,WNW,302,1.2,1.2,82,0.00,,,0.00,TxWx,2013-12-23 17:35:00,
2013-12-23 11:40:00,11.3,6.0,30.66,ENE,77,3.1,3.7,83,0.00,,,0.00,TxWx,2013-12-23 17:40:00,
2013-12-23 11:45:00,11.2,6.0,30.67,WSW,257,1.2,3.1,82,0.00,,,0.00,TxWx,2013-12-23 17:45:00,
2013-12-23 11:50:00,11.1,6.0,30.66,WSW,257,5.6,5.6,83,0.00,,,0.00,TxWx,2013-12-23 17:50:00,
2013-12-23 11:55:00,11.2,6.0,30.65,West,280,1.2,3.1,82,0.00,,,0.00,TxWx,2013-12-23 17:55:00,
2013-12-23 12:00:00,11.1,6.0,30.65,SSW,212,1.2,1.9,83,0.00,,,0.00,TxWx,2013-12-23 18:00:00,
2013-12-23 12:05:00,11.6,7.0,30.65,WSW,257,1.9,2.5,84,0.00,,,0.00,TxWx,2013-12-23 18:05:00,
2013-12-23 12:10:00,12.1,7.0,30.65,NNE,32,1.9,3.7,84,0.00,,,0.00,TxWx,2013-12-23 18:10:00,
2013-12-23 12:15:00,12.1,7.0,30.65,WSW,257,1.9,3.7,83,0.00,,,0.00,TxWx,2013-12-23 18:15:00,
2013-12-23 12:20:00,11.8,6.0,30.65,WNW,302,1.9,3.1,81,0.00,,,0.00,TxWx,2013-12-23 18:20:00,
2013-12-23 12:25:00,12.0,6.0,30.64,NE,55,1.2,1.9,81,0.00,,,0.00,TxWx,2013-12-23 18:25:00,
2013-12-23 12:30:00,12.0,7.0,30.64,WNW,302,3.7,4.3,82,0.00,,,0.00,TxWx,2013-12-23 18:30:00,
2013-12-23 12:35:00,12.0,7.0,30.64,WNW,302,1.2,3.1,82,0.00,,,0.00,TxWx,2013-12-23 18:35:00,
2013-12-23 12:40:00,11.9,6.0,30.64,NNW,347,5.0,5.6,82,0.00,,,0.00,TxWx,2013-12-23 18:40:00,
2013-12-23 12:45:00,11.6,6.0,30.63,WNW,302,3.1,5.0,81,0.00,,,0.00,TxWx,2013-12-23 18:45:00,
2013-12-23 12:51:00,11.8,6.0,30.62,WSW,257,1.2,3.1,82,0.00,,,0.00,TxWx,2013-12-23 18:51:00,
2013-12-23 12:56:00,12.0,6.0,30.63,WNW,302,1.9,3.1,81,0.00,,,0.00,TxWx,2013-12-23 18:56:00,
2013-12-23 13:01:00,12.2,6.0,30.63,ENE,77,1.9,3.7,80,0.00,,,0.00,TxWx,2013-12-23 19:01:00,
2013-12-23 13:06:00,12.8,7.0,30.63,NW,325,1.2,5.0,80,0.00,,,0.00,TxWx,2013-12-23 19:06:00,
2013-12-23 13:11:00,12.8,7.0,30.63,NNW,347,0.6,2.5,79,0.00,,,0.00,TxWx,2013-12-23 19:11:00,
2013-12-23 13:16:00,12.9,7.0,30.63,WSW,257,3.7,5.0,79,0.00,,,0.00,TxWx,2013-12-23 19:16:00,
2013-12-23 13:21:00,12.5,5.0,30.63,NW,325,1.2,5.6,78,0.00,,,0.00,TxWx,2013-12-23 19:21:00,
2013-12-23 13:26:00,12.2,5.0,30.63,WSW,257,3.1,5.0,78,0.00,,,0.00,TxWx,2013-12-23 19:26:00,
2013-12-23 13:31:00,11.8,5.0,30.64,West,280,3.7,4.3,78,0.00,,,0.00,TxWx,2013-12-23 19:31:00,
2013-12-23 13:36:00,11.5,5.0,30.64,NNW,347,3.1,3.7,79,0.00,,,0.00,TxWx,2013-12-23 19:36:00,
2013-12-23 13:41:00,11.3,5.0,30.64,North,10,5.0,5.0,79,0.00,,,0.00,TxWx,2013-12-23 19:41:00,
2013-12-23 13:46:00,11.5,5.0,30.64,WNW,302,3.1,3.1,79,0.00,,,0.00,TxWx,2013-12-23 19:46:00,
2013-12-23 13:51:00,11.4,5.0,30.64,WNW,302,3.1,5.0,79,0.00,,,0.00,TxWx,2013-12-23 19:51:00,
2013-12-23 13:56:00,11.9,6.0,30.64,NNW,347,1.9,4.3,79,0.00,,,0.00,TxWx,2013-12-23 19:56:00,
2013-12-23 14:01:00,12.2,6.0,30.64,WNW,302,3.7,6.2,79,0.00,,,0.00,TxWx,2013-12-23 20:01:00,
2013-12-23 14:06:00,12.1,5.0,30.63,WNW,302,3.1,5.6,78,0.00,,,0.00,TxWx,2013-12-23 20:06:00,
2013-12-23 14:11:00,12.1,5.0,30.63,WNW,302,1.2,5.0,78,0.00,,,0.00,TxWx,2013-12-23 20:11:00,
2013-12-23 14:16:00,12.1,5.0,30.63,WSW,257,1.9,6.2,78,0.00,,,0.00,TxWx,2013-12-23 20:16:00,
2013-12-23 14:21:00,12.5,6.0,30.63,WNW,302,5.0,5.0,79,0.00,,,0.00,TxWx,2013-12-23 20:21:00,
2013-12-23 14:26:00,12.4,5.0,30.63,NW,325,3.1,3.1,78,0.00,,,0.00,TxWx,2013-12-23 20:26:00,
2013-12-23 14:31:00,12.4,5.0,30.63,NW,325,5.0,5.0,78,0.00,,,0.00,TxWx,2013-12-23 20:31:00,
2013-12-23 14:36:00,12.6,6.0,30.62,West,280,1.2,4.3,78,0.00,,,0.00,TxWx,2013-12-23 20:36:00,
2013-12-23 14:41:00,12.8,6.0,30.62,North,10,2.5,4.3,78,0.00,,,0.00,TxWx,2013-12-23 20:41:00,
2013-12-23 14:46:00,12.9,6.0,30.63,NNW,347,1.9,3.7,77,0.00,,,0.00,TxWx,2013-12-23 20:46:00,
2013-12-23 14:51:00,13.2,6.0,30.63,NW,325,0.6,3.1,77,0.00,,,0.00,TxWx,2013-12-23 20:51:00,
2013-12-23 14:56:00,13.3,6.0,30.63,WNW,302,3.1,5.6,77,0.00,,,0.00,TxWx,2013-12-23 20:56:00,
2013-12-23 15:01:00,13.2,6.0,30.63,WNW,302,0.6,3.1,76,0.00,,,0.00,TxWx,2013-12-23 21:01:00,
2013-12-23 15:06:00,13.2,6.0,30.64,West,280,3.1,3.1,76,0.00,,,0.00,TxWx,2013-12-23 21:06:00,
2013-12-23 15:11:00,13.6,7.0,30.64,NNW,347,2.5,6.8,78,0.00,,,0.00,TxWx,2013-12-23 21:11:00,
2013-12-23 15:16:00,13.5,6.0,30.64,SW,235,1.2,3.1,76,0.00,,,0.00,TxWx,2013-12-23 21:16:00,
2013-12-23 15:22:00,13.5,7.0,30.63,NNW,347,1.2,3.1,75,0.00,,,0.00,TxWx,2013-12-23 21:22:00,
2013-12-23 15:27:00,13.4,6.0,30.64,WNW,302,1.2,3.1,75,0.00,,,0.00,TxWx,2013-12-23 21:27:00,
2013-12-23 15:32:00,13.4,6.0,30.64,WNW,302,5.0,6.8,75,0.00,,,0.00,TxWx,2013-12-23 21:32:00,
2013-12-23 15:37:00,13.8,7.0,30.64,NNW,347,3.1,4.3,75,0.00,,,0.00,TxWx,2013-12-23 21:37:00,
2013-12-23 15:42:00,13.8,6.0,30.63,WNW,302,3.7,3.7,74,0.00,,,0.00,TxWx,2013-12-23 21:42:00,
2013-12-23 15:47:00,13.5,6.0,30.63,NNE,32,1.9,3.7,73,0.00,,,0.00,TxWx,2013-12-23 21:47:00,
2013-12-23 15:52:00,13.2,5.0,30.63,North,10,2.5,3.7,74,0.00,,,0.00,TxWx,2013-12-23 21:52:00,
2013-12-23 15:57:00,13.1,5.0,30.64,NE,55,1.2,3.1,73,0.00,,,0.00,TxWx,2013-12-23 21:57:00,
2013-12-23 16:02:00,12.9,5.0,30.64,WNW,302,3.1,3.1,73,0.00,,,0.00,TxWx,2013-12-23 22:02:00,
2013-12-23 16:07:00,12.9,5.0,30.64,NW,325,1.2,3.7,74,0.00,,,0.00,TxWx,2013-12-23 22:07:00,
2013-12-23 16:12:00,12.9,5.0,30.64,NW,325,3.1,5.6,75,0.00,,,0.00,TxWx,2013-12-23 22:12:00,
2013-12-23 16:17:00,12.6,6.0,30.65,WNW,302,2.5,3.1,76,0.00,,,0.00,TxWx,2013-12-23 22:17:00,
2013-12-23 16:22:00,12.3,5.0,30.65,West,280,3.1,4.3,75,0.00,,,0.00,TxWx,2013-12-23 22:22:00,
2013-12-23 16:27:00,12.0,4.0,30.64,NNW,347,1.9,3.7,74,0.00,,,0.00,TxWx,2013-12-23 22:27:00,
2013-12-23 16:32:00,11.7,5.0,30.64,NNE,32,0.6,1.9,75,0.00,,,0.00,TxWx,2013-12-23 22:32:00,
2013-12-23 16:38:00,11.4,4.0,30.64,West,280,3.1,3.7,76,0.00,,,0.00,TxWx,2013-12-23 22:38:00,
2013-12-23 16:43:00,11.0,4.0,30.64,WSW,257,0.6,2.5,76,0.00,,,0.00,TxWx,2013-12-23 22:43:00,
2013-12-23 16:48:00,10.9,4.0,30.64,WSW,257,0.6,2.5,77,0.00,,,0.00,TxWx,2013-12-23 22:48:00,
2013-12-23 16:53:00,10.6,4.0,30.64,WNW,302,1.9,3.1,77,0.00,,,0.00,TxWx,2013-12-23 22:53:00,
2013-12-23 16:58:00,10.5,3.0,30.64,NW,325,0.0,1.2,77,0.00,,,0.00,TxWx,2013-12-23 22:58:00,
2013-12-23 17:03:00,10.3,3.0,30.64,West,280,2.5,3.7,78,0.00,,,0.00,TxWx,2013-12-23 23:03:00,
2013-12-23 17:08:00,10.2,3.0,30.64,North,10,0.6,4.3,78,0.00,,,0.00,TxWx,2013-12-23 23:08:00,
2013-12-23 17:13:00,10.1,3.0,30.64,NNW,347,0.6,1.2,78,0.00,,,0.00,TxWx,2013-12-23 23:13:00,
2013-12-23 17:18:00,10.0,3.0,30.65,West,280,0.6,1.2,78,0.00,,,0.00,TxWx,2013-12-23 23:18:00,
2013-12-23 17:23:00,9.8,3.0,30.65,WNW,302,0.0,0.6,78,0.00,,,0.00,TxWx,2013-12-23 23:23:00,
2013-12-23 17:28:00,9.7,4.0,30.65,NE,55,0.0,0.6,78,0.00,,,0.00,TxWx,2013-12-23 23:28:00,
2013-12-23 17:33:00,9.5,4.0,30.66,WNW,302,0.0,0.6,79,0.00,,,0.00,TxWx,2013-12-23 23:33:00,
2013-12-23 17:38:00,9.4,3.0,30.65,WNW,302,0.0,0.6,79,0.00,,,0.00,TxWx,2013-12-23 23:38:00,
2013-12-23 17:43:00,9.3,3.0,30.66,West,280,1.9,4.3,79,0.00,,,0.00,TxWx,2013-12-23 23:43:00,
2013-12-23 17:48:00,9.3,3.0,30.65,NE,55,0.0,0.6,80,0.00,,,0.00,TxWx,2013-12-23 23:48:00,
2013-12-23 17:53:00,9.2,3.0,30.66,WNW,302,0.6,1.2,80,0.00,,,0.00,TxWx,2013-12-23 23:53:00,
2013-12-23 17:58:00,9.2,3.0,30.66,North,10,0.0,1.9,80,0.00,,,0.00,TxWx,2013-12-23 23:58:00,
2013-12-23 18:03:00,9.1,3.0,30.66,NNW,347,0.0,0.0,80,0.00,,,0.00,TxWx,2013-12-24 00:03:00,
2013-12-23 18:08:00,9.0,3.0,30.66,NNW,347,0.0,0.6,80,0.00,,,0.00,TxWx,2013-12-24 00:08:00,
2013-12-23 18:13:00,8.9,3.0,30.66,NE,55,0.0,0.0,80,0.00,,,0.00,TxWx,2013-12-24 00:13:00,
2013-12-23 18:18:00,8.7,3.0,30.66,NNW,347,0.0,1.2,80,0.00,,,0.00,TxWx,2013-12-24 00:18:00,
2013-12-23 18:23:00,8.6,3.0,30.66,NW,325,0.0,0.6,80,0.00,,,0.00,TxWx,2013-12-24 00:23:00,
2013-12-23 18:28:00,8.5,3.0,30.66,NNW,347,0.0,0.6,81,0.00,,,0.00,TxWx,2013-12-24 00:28:00,
2013-12-23 18:33:00,8.4,2.0,30.66,North,10,0.0,1.2,81,0.00,,,0.00,TxWx,2013-12-24 00:33:00,
2013-12-23 18:38:00,8.3,2.0,30.66,NE,55,0.0,0.0,81,0.00,,,0.00,TxWx,2013-12-24 00:38:00,
2013-12-23 18:44:00,8.3,2.0,30.66,NNE,32,0.0,0.0,81,0.00,,,0.00,TxWx,2013-12-24 00:44:00,
2013-12-23 18:49:00,8.2,2.0,30.66,NNE,32,0.0,0.0,81,0.00,,,0.00,TxWx,2013-12-24 00:49:00,
2013-12-23 18:54:00,8.2,2.0,30.66,NNE,32,0.0,0.6,81,0.00,,,0.00,TxWx,2013-12-24 00:54:00,
2013-12-23 18:59:00,8.1,2.0,30.66,North,10,0.0,0.0,81,0.00,,,0.00,TxWx,2013-12-24 00:59:00,
2013-12-23 19:04:00,7.7,2.0,30.66,NE,55,0.0,0.0,81,0.00,,,0.00,TxWx,2013-12-24 01:04:00,
2013-12-23 19:09:00,7.5,3.0,30.66,NNW,347,0.0,0.6,82,0.00,,,0.00,TxWx,2013-12-24 01:09:00,
2013-12-23 19:14:00,7.4,2.0,30.66,North,10,0.0,0.0,82,0.00,,,0.00,TxWx,2013-12-24 01:14:00,
2013-12-23 19:19:00,7.3,2.0,30.66,ENE,77,0.0,0.6,82,0.00,,,0.00,TxWx,2013-12-24 01:19:00,
2013-12-23 19:24:00,7.2,2.0,30.66,ENE,77,0.0,0.0,82,0.00,,,0.00,TxWx,2013-12-24 01:24:00,
2013-12-23 19:29:00,7.1,2.0,30.66,NE,55,0.6,0.6,83,0.00,,,0.00,TxWx,2013-12-24 01:29:00,
2013-12-23 19:34:00,7.0,2.0,30.66,NE,55,0.0,0.6,83,0.00,,,0.00,TxWx,2013-12-24 01:34:00,
2013-12-23 19:39:00,7.0,2.0,30.66,NE,55,0.0,0.0,83,0.00,,,0.00,TxWx,2013-12-24 01:39:00,
2013-12-23 19:44:00,6.7,2.0,30.66,ENE,77,0.6,0.6,83,0.00,,,0.00,TxWx,2013-12-24 01:44:00,
2013-12-23 19:49:00,6.7,2.0,30.66,NE,55,0.0,0.6,84,0.00,,,0.00,TxWx,2013-12-24 01:49:00,
2013-12-23 19:54:00,6.6,2.0,30.66,NNE,32,0.0,0.0,84,0.00,,,0.00,TxWx,2013-12-24 01:54:00,
2013-12-23 19:59:00,6.3,1.0,30.66,WSW,257,0.0,0.0,84,0.00,,,0.00,TxWx,2013-12-24 01:59:00,
2013-12-23 20:04:00,6.2,1.0,30.66,North,10,0.0,0.0,84,0.00,,,0.00,TxWx,2013-12-24 02:04:00,
2013-12-23 20:09:00,6.1,1.0,30.67,NNW,347,0.0,0.0,84,0.00,,,0.00,TxWx,2013-12-24 02:09:00,
2013-12-23 20:14:00,6.0,1.0,30.67,North,10,0.0,0.0,84,0.00,,,0.00,TxWx,2013-12-24 02:14:00,
2013-12-23 20:19:00,6.0,1.0,30.67,WNW,302,0.0,0.0,84,0.00,,,0.00,TxWx,2013-12-24 02:19:00,
2013-12-23 20:24:00,5.9,1.0,30.67,NW,325,0.0,0.0,85,0.00,,,0.00,TxWx,2013-12-24 02:24:00,
2013-12-23 20:29:00,5.8,1.0,30.67,NE,55,0.0,0.0,85,0.00,,,0.00,TxWx,2013-12-24 02:29:00,
2013-12-23 20:34:00,5.9,2.0,30.67,NNW,347,0.0,0.0,86,0.00,,,0.00,TxWx,2013-12-24 02:34:00,
2013-12-23 20:39:00,5.9,2.0,30.67,NE,55,0.0,0.0,86,0.00,,,0.00,TxWx,2013-12-24 02:39:00,
2013-12-23 20:44:00,6.0,2.0,30.67,NE,55,0.0,0.6,86,0.00,,,0.00,TxWx,2013-12-24 02:44:00,
2013-12-23 20:50:00,6.2,2.0,30.67,ENE,77,0.0,0.6,86,0.00,,,0.00,TxWx,2013-12-24 02:50:00,
2013-12-23 20:55:00,6.3,2.0,30.67,WSW,257,0.0,0.6,86,0.00,,,0.00,TxWx,2013-12-24 02:55:00,
2013-12-23 21:00:00,6.4,2.0,30.68,WSW,257,0.0,0.0,86,0.00,,,0.00,TxWx,2013-12-24 03:00:00,
2013-12-23 21:05:00,6.3,1.0,30.68,WSW,257,0.0,0.6,85,0.00,,,0.00,TxWx,2013-12-24 03:05:00,
2013-12-23 21:10:00,6.4,1.0,30.68,NNW,347,0.0,0.0,85,0.00,,,0.00,TxWx,2013-12-24 03:10:00,
2013-12-23 21:15:00,6.5,3.0,30.68,WSW,257,0.0,0.0,86,0.00,,,0.00,TxWx,2013-12-24 03:15:00,
2013-12-23 21:20:00,6.6,2.0,30.68,West,280,0.0,0.0,85,0.00,,,0.00,TxWx,2013-12-24 03:20:00,
2013-12-23 21:25:00,6.8,2.0,30.68,NNW,347,0.0,0.0,85,0.00,,,0.00,TxWx,2013-12-24 03:25:00,
2013-12-23 21:30:00,7.0,2.0,30.68,West,280,0.0,0.0,85,0.00,,,0.00,TxWx,2013-12-24 03:30:00,
2013-12-23 21:35:00,7.1,2.0,30.68,WSW,257,0.0,0.0,85,0.00,,,0.00,TxWx,2013-12-24 03:35:00,
2013-12-23 21:40:00,7.3,2.0,30.68,NE,55,0.0,1.2,85,0.00,,,0.00,TxWx,2013-12-24 03:40:00,
2013-12-23 21:45:00,7.4,2.0,30.68,North,10,0.0,0.0,85,0.00,,,0.00,TxWx,2013-12-24 03:45:00,
2013-12-23 21:50:00,7.4,2.0,30.68,North,10,0.0,1.2,84,0.00,,,0.00,TxWx,2013-12-24 03:50:00,
2013-12-23 21:55:00,7.5,3.0,30.68,NE,55,0.0,0.6,83,0.00,,,0.00,TxWx,2013-12-24 03:55:00,
2013-12-23 22:00:00,7.7,3.0,30.69,South,190,0.0,0.6,83,0.00,,,0.00,TxWx,2013-12-24 04:00:00,
2013-12-23 22:05:00,7.9,3.0,30.69,ENE,77,0.6,0.6,83,0.00,,,0.00,TxWx,2013-12-24 04:05:00,
2013-12-23 22:10:00,8.0,3.0,30.70,WNW,302,0.6,0.6,83,0.00,,,0.00,TxWx,2013-12-24 04:10:00,
2013-12-23 22:15:00,8.2,3.0,30.70,East,100,0.0,0.0,83,0.00,,,0.00,TxWx,2013-12-24 04:15:00,
2013-12-23 22:20:00,8.2,3.0,30.70,SSW,212,0.0,1.2,82,0.00,,,0.00,TxWx,2013-12-24 04:20:00,
2013-12-23 22:25:00,8.3,3.0,30.70,NW,325,0.0,0.0,82,0.00,,,0.00,TxWx,2013-12-24 04:25:00,
2013-12-23 22:30:00,8.3,3.0,30.70,East,100,0.0,0.0,82,0.00,,,0.00,TxWx,2013-12-24 04:30:00,
2013-12-23 22:35:00,8.0,2.0,30.70,East,100,0.0,0.0,81,0.00,,,0.00,TxWx,2013-12-24 04:35:00,
2013-12-23 22:40:00,8.1,3.0,30.70,ENE,77,0.0,0.0,82,0.00,,,0.00,TxWx,2013-12-24 04:40:00,
2013-12-23 22:45:00,8.2,3.0,30.69,East,100,0.0,0.6,83,0.00,,,0.00,TxWx,2013-12-24 04:45:00,
2013-12-23 22:50:00,8.1,3.0,30.69,ENE,77,0.0,0.0,83,0.00,,,0.00,TxWx,2013-12-24 04:50:00,
2013-12-23 22:55:00,7.9,3.0,30.70,WSW,257,0.0,0.6,83,0.00,,,0.00,TxWx,2013-12-24 04:55:00,
2013-12-23 23:00:00,7.6,3.0,30.70,WSW,257,0.0,0.0,83,0.00,,,0.00,TxWx,2013-12-24 05:00:00,
2013-12-23 23:01:00,7.6,3.0,30.70,WSW,257,0.0,0.0,83,0.00,,,0.00,TxWx,2013-12-24 05:01:00,
2013-12-23 23:02:00,7.6,3.0,30.70,WSW,257,0.0,0.0,83,0.00,,,0.00,TxWx,2013-12-24 05:02:00,
2013-12-23 23:04:00,7.5,3.0,30.70,WSW,257,0.0,0.0,83,0.00,,,0.00,TxWx,2013-12-24 05:04:00,
2013-12-23 23:07:00,7.4,2.0,30.70,WSW,257,0.0,0.0,83,0.00,,,0.00,TxWx,2013-12-24 05:07:00,
2013-12-23 23:08:00,7.4,2.0,30.70,WSW,257,0.0,0.0,83,0.00,,,0.00,TxWx,2013-12-24 05:08:00,
2013-12-23 23:09:00,7.3,2.0,30.70,WSW,257,0.0,0.0,83,0.00,,,0.00,TxWx,2013-12-24 05:09:00,
2013-12-23 23:15:00,7.2,2.0,30.70,SSW,212,0.0,0.0,83,0.00,,,0.00,TxWx,2013-12-24 05:15:00,
2013-12-23 23:20:00,6.9,2.0,30.70,ENE,77,0.0,0.0,83,0.00,,,0.00,TxWx,2013-12-24 05:20:00,
2013-12-23 23:25:00,6.7,2.0,30.70,SE,145,0.0,0.0,83,0.00,,,0.00,TxWx,2013-12-24 05:25:00,
2013-12-23 23:30:00,6.5,2.0,30.70,SE,145,0.0,0.0,84,0.00,,,0.00,TxWx,2013-12-24 05:30:00,
2013-12-23 23:35:00,6.3,1.0,30.69,SE,145,0.0,0.0,84,0.00,,,0.00,TxWx,2013-12-24 05:35:00,
2013-12-23 23:40:00,6.0,1.0,30.69,ESE,122,0.0,0.0,84,0.00,,,0.00,TxWx,2013-12-24 05:40:00,
2013-12-23 23:45:00,5.7,1.0,30.69,ENE,77,0.0,0.6,85,0.00,,,0.00,TxWx,2013-12-24 05:45:00,
2013-12-23 23:50:00,5.7,2.0,30.69,ENE,77,0.0,0.0,86,0.00,,,0.00,TxWx,2013-12-24 05:50:00,
2013-12-23 23:55:00,5.5,2.0,30.69,ENE,77,0.0,0.0,86,0.00,,,0.00,TxWx,2013-12-24 05:55:00,